Regional Weather Roundup
Issued by NWS Mt. Holly, NJ

Home | Current Version | Previous Version | Text Only | Print | Product List | Glossary On
Versions: 1 2 3 4 5 6 7 8 9 10 11 12 13 14 15 16 17 18 19 20 21 22 23 24 25 26 27 28 29 30 31 32 33 34 35 36 37 38 39 40 41 42 43 44 45 46 47 48
000
ASUS41 KPHI 300710
RWRPHI

REGIONAL WEATHER ROUNDUP
NATIONAL WEATHER SERVICE MOUNT HOLLY NJ
300 AM EDT TUE SEP 30 2014

NOTE:  "FAIR" INDICATES FEW OR NO CLOUDS BELOW 12,000 FEET WITH NO
SIGNIFICANT WEATHER AND/OR OBSTRUCTIONS TO VISIBILITY.

 * = STATION DOES NOT REPORT PRECIPITATION (E.G. RAIN, SNOW, ETC.)
        OR FOG.

NJZ015>026-300800-
SOUTHERN NEW JERSEY

CITY           SKY/WX    TMP DP  RH WIND       PRES   REMARKS
POMONA         CLOUDY    64  59  83 VRB3      29.93F
RIO GRANDE*    CLOUDY    64  61  88 CALM      29.94F
MILLVILLE      CLOUDY    63  62  97 CALM      29.93F
WRIGHTSTOWN    CLOUDY    63  63 100 SE1       29.91F FOG
MOUNT HOLLY    CLOUDY    62  61  96 CALM      29.93F
TRENTON        CLOUDY    64  59  83 S5        29.92F

$$
NJZ001>014-300800-
NORTHERN NEW JERSEY

CITY           SKY/WX    TMP DP  RH WIND       PRES   REMARKS
SUSSEX         MOCLDY    59  56  89 CALM      29.93F FOG
ANDOVER*         N/A     58  57  97 CALM      29.93F
MORRISTOWN     CLOUDY    64  59  82 CALM      29.92F
NEWARK         CLOUDY    67  60  78 SW6       29.93S
TETERBORO      CLOUDY    66  59  78 CALM      29.91F
CALDWELL       CLOUDY    65  58  78 CALM      29.93F
SOMERVILLE     CLOUDY    61  58  90 CALM      29.91F
ALLAIRE*       CLOUDY    64  59  82 CALM      29.93F
TOMS RIVER*    CLOUDY    63  61  94 CALM      29.93F

$$
PAZ043-044-047-054-055-060>062-066>071-300800-
EASTERN PENNSYLVANIA

CITY           SKY/WX    TMP DP  RH WIND       PRES   REMARKS
PHILADELPHIA   CLOUDY    66  62  87 CALM      29.93F
NORTH PHILA    CLOUDY    66  60  81 CALM      29.94F
BLUE BELL      CLOUDY    61  61 100 CALM      29.92F
DOYLESTOWN     CLOUDY    60  60 100 CALM      29.92F
QUAKERTOWN*    MOCLDY    57  57 100 CALM      29.94F VSB 1
POTTSTOWN      MOCLDY    60  59  96 CALM      29.93F FOG
LANCASTER      FOG       60  59  96 CALM      29.92S VSB<1/4
COATESVILLE    FOG       64  64 100 CALM      29.94S VSB 1/4
READING        MOCLDY    62  59  90 CALM      29.91F
ALLENTOWN      FOG       59  57  94 E3        29.92F VSB 3/4
MOUNT POCONO   PTCLDY    54  52  93 CALM      29.95F FOG
HAZLETON       FOG       55  55 100 CALM      29.96F VSB 1/4
WILKES BARRE   PTCLDY    60  56  86 E3        29.92F

$$
DEZALL-MDZ008-012-015-019-020-300800-
DELAWARE AND EASTERN MARYLAND

CITY           SKY/WX    TMP DP  RH WIND       PRES   REMARKS
WILMINGTON     CLOUDY    65  63  93 CALM      29.93F FOG
DOVER          CLOUDY    64  64 100 SE3       29.91F
GEORGETOWN     CLOUDY    64  61  90 S7        29.94F
EASTON         CLOUDY    65  65 100 SE3       29.95F FOG
PATUXENT       MOCLDY    61  60  97 CALM      29.91F FOG
OCEAN CITY     LGT RAIN N/A N/A N/A CALM      29.93F
WALLOPS ISLAND LGT RAIN  64  62  93 N5        29.93F
CAMBRIDGE      CLOUDY    63  61  94 CALM      29.92F VSB 1
SALISBURY      CLOUDY    66  62  87 NW5       29.92F

$$
PAZ001-021-NYZ056-072-MDZ011-DCZ001-300800-
OTHER NEARBY LOCATIONS

CITY           SKY/WX    TMP DP  RH WIND       PRES   REMARKS
HARRISBURG     PTCLDY    63  61  93 SE5       29.90F
STATE COLLEGE  MOCLDY    58  56  95 CALM      29.92S
WILLIAMSPORT   FOG       59  57  93 CALM      29.90F VSB 3/4
BINGHAMTON     CLOUDY    58  55  90 CALM      29.92S
NEW YORK CITY  CLOUDY    69  56  62 W3        29.95F
BALTIMORE      CLOUDY    64  63  94 CALM      29.90F FOG
WASHINGTON DC  CLOUDY    68  63  84 S8        29.92F

$$



USA.gov is the U.S. government's official web portal to all federal, state and local government web resources and services.